This is the latest recevied weather packets stored in our database for station/object XE2RCS-34. If no packets are shown the sender has not sent any weather packets the latest 1 day(s).
| Time | Temp. | Humidity | Pressure | Rain* | Wind** | Luminosity | Snow |
|---|---|---|---|---|---|---|---|
| 1778052209 | 24.44° C | 25% | 1044.8 hPa | - | - | - | - |
| 1778051309 | 24.44° C | 26% | 1044.8 hPa | - | - | - | - |
| 1778050409 | 25° C | 27% | 1044.9 hPa | - | - | - | - |
| 1778049509 | 25° C | 28% | 1044.9 hPa | - | - | - | - |
| 1778048609 | 25° C | 28% | 1044.9 hPa | - | - | - | - |
| 1778047709 | 25.56° C | 29% | 1044.9 hPa | - | - | - | - |
| 1778046809 | 25.56° C | 28% | 1045 hPa | - | - | - | - |
| 1778044109 | 26.67° C | 29% | 1044.9 hPa | - | - | - | - |
| 1778043208 | 26.67° C | 29% | 1044.8 hPa | - | - | - | - |
| 1778041408 | 27.22° C | 29% | 1044.9 hPa | - | - | - | - |
| 1778039608 | 27.78° C | 29% | 1044.8 hPa | - | - | - | - |
| 1778038708 | 28.33° C | 28% | 1044.7 hPa | - | - | - | - |
| 1778037808 | 28.89° C | 28% | 1044.7 hPa | - | - | - | - |
| 1778036908 | 28.89° C | 27% | 1044.6 hPa | - | - | - | - |
| 1778036008 | 29.44° C | 27% | 1044.5 hPa | - | - | - | - |
| 1778035108 | 29.44° C | 27% | 1044.4 hPa | - | - | - | - |
| 1778032410 | 30.56° C | 26% | 1043.9 hPa | - | - | - | - |
| 1778031510 | 30.56° C | 26% | 1043.6 hPa | - | - | - | - |
| 1778030610 | 31.11° C | 26% | 1043.5 hPa | - | - | - | - |
| 1778029710 | 31.67° C | 26% | 1043.4 hPa | - | - | - | - |
| 1778028810 | 31.67° C | 24% | 1043.3 hPa | - | - | - | - |
| 1778027910 | 32.22° C | 22% | 1043.3 hPa | - | - | - | - |
| 1778027010 | 32.22° C | 23% | 1043.3 hPa | - | - | - | - |
* Rain since midnight (hover to see other rain measurements)
** Current wind speed in m/s (hover to see current wind gust speed)